HAWK-5B

Last updated on Fri Dec 29 2023 00:03:29 GMT+0000 (Coordinated Universal Time)

1 52756U 22057AA 23362.28969247 .00008030 00000+0 37704-3 0 9998 2 52756 97.5549 117.1823 0009754 31.6468 328.5351 15.19858559 88078
UTC large
Height (km)
Speed (km/s)
/
Latitude / Longitude
Inclination (degrees)
Orbital Period (minutes)
Azimuth
Elevation
Range (km)
Doppler Factor

Next 0 passes for location: London (51.5072 / 0.1276)

Sorry there are no passes over London.